Weather Roundup
Issued by NWS Corpus Christi, TX

Home | Current Version | Previous Version | Text Only | Print | Product List | Glossary On
Versions: 1 2 3 4 5 6 7 8 9 10 11 12 13 14 15 16 17 18 19 20 21 22 23 24 25 26 27 28 29 30 31 32 33 34 35 36 37 38 39 40 41 42 43 44 45 46 47 48 49 50
000
ASUS44 KCRP 301510
HRRCRP

SOUTH TEXAS REGIONAL WEATHER ROUNDUP
NATIONAL WEATHER SERVICE CORPUS CHRISTI TX
1000 AM CDT SAT JUL 30 2016


TXZ229>244-301600-
...CORPUS CHRISTI AREA OBSERVATIONS...

CITY           SKY/WX    TMP DP  RH WIND       PRES   REMARKS
CORPUS CHRISTI PTSUNNY   87  76  69 S8        30.01F HX  97
NAS CORPUS CHR MOSUNNY   88  75  65 S9        30.01F HX  97
ROCKPORT       MOSUNNY   88  76  67 S7        30.01S HX  99
KINGSVILLE NAS SUNNY     87  78  74 SE10      30.01F HX 100
ALICE          MOSUNNY   87  75  67 S12       30.01F HX  96
FALFURRIAS     PTSUNNY   87  76  70 S9        30.01F HX  96
$$

...VICTORIA AREA OBSERVATIONS...

CITY           SKY/WX    TMP DP  RH WIND       PRES   REMARKS
VICTORIA       MOSUNNY   86  75  69 SW9       30.03S HX  95
BEEVILLE       PTSUNNY   83  78  84 S7        30.03S HX  92
PLEASANTON     PTSUNNY   83  73  72 S9        30.05R
SAN ANTONIO    PTSUNNY   83  72  69 S10       30.06R
$$

...LAREDO AREA OBSERVATIONS...

CITY           SKY/WX    TMP DP  RH WIND       PRES   REMARKS
LAREDO         MOSUNNY   84  75  74 SE10      30.02S HX  92
COTULLA        PTSUNNY   83  74  74 S7        30.02S
DEL RIO        CLOUDY    82  68  62 SE12      30.02R
MCALLEN        MOSUNNY   89  76  65 S10       30.01R HX 100
HEBBRONVILLE   MOSUNNY   84  73  70 SE16G22   30.03F HX  91
$$

...OTHER TEXAS OBSERVATIONS...

CITY           SKY/WX    TMP DP  RH WIND       PRES   REMARKS
BROWNSVILLE    MOSUNNY   85  76  74 S9        30.01R HX  94
HOUSTON        MOSUNNY   86  76  71 W9        30.03R HX  96
COL. STATION   MOSUNNY   85  76  74 W8        30.04S HX  94
AUSTIN         MOSUNNY   84  75  74 S10       30.05R HX  92
WACO           SUNNY     86  71  60 SW10      30.03S HX  91
FORT WORTH     MOSUNNY   89  71  55 SW13      30.00S HX  95
WICHITA FALLS  SUNNY     86  65  49 SW12      29.98F
LUBBOCK        CLOUDY    74  62  66 CALM      30.12S
EL PASO        PTSUNNY   79  61  53 E6        30.10R
$$

...MARINE OBSERVATIONS...

STATION/POSITION TIME  SKY/WX   TEMP    WIND        PRES    VSBY  WAVE   SWELL
                                AIR SEA DIR/SP/G                  HT/PER HT/PER
                 (UTC)          (F)     (DEG/KT/KT) (MB)    (MI)  (FT/S) (FT/S)
PORT ARANSAS     1400            83 87  170/  6/  6 1016.6R
BUOY 90 E PORT A 1450            85 86  180/  6/  8 1016.7R         2/ 7   2/ 7
BUOY 45 SE BAFFI 1450            85 85  160/  6/  8 1016.1R         2/ 5   2/ 5
BUOY 200 E PT IS 1450            86 87  180/  4/  6 1016.3R         2/ 8   2/ 8
BUOY 15 E GALVES 1450            86 87  230/  6/  8 1016.6R         2/ 4   2/ 7
$$



USA.gov is the U.S. government's official web portal to all federal, state and local government web resources and services.